Wind_Speed
5 8 9 7 6 4 2 1 3 4 5 5 5 5 5 7 6 6 8 7 8 7 8 9 9 9 9 10 10 11 13 12 14 12 15 9 8 6 12 15 16 16 12
8 9 8 6 4 2 2 3 4 4 5 5 5 5 7 6 8 7 8 8 8 9 9 9 9 9 9 9 9 9 10 11 11 10 9 5 5 12 8 13 15 17 15
9 8 7 6 5 4 5 5 5 5 5 6 6 7 7 8 7 8 10 9 12 11 11 10 9 10 9 10 9 8 7 9 10 9 4 3 3 12 8 12 13 17 16
6 6 7 6 7 7 7 7 7 7 8 7 6 6 7 9 10 12 12 13 12 12 11 11 9 10 10 10 9 7 6 6 9 9 5 7 9 3 5 10 10 14 12
6 6 7 8 7 6 6 6 6 8 9 8 8 7 8 9 11 12 13 12 11 10 10 11 9 10 10 10 10 9 8 7 8 9 9 10 10 5 4 7 10 13 10
6 8 8 8 7 5 5 6 6 7 8 8 8 8 8 10 11 12 12 13 13 12 10 10 9 10 10 11 10 10 9 9 9 10 9 10 7 9 7 6 9 11 8
8 8 9 7 5 5 5 5 6 7 8 8 8 8 9 9 10 11 12 14 14 13 12 12 10 10 10 10 10 11 11 11 11 11 11 11 11 11 12 14 12 7 16
8 8 8 6 5 3 3 4 6 7 8 8 9 9 9 8 9 10 11 11 11 12 13 12 11 11 10 10 10 11 11 11 12 12 12 13 13 11 11 11 12 9 9
10 9 9 8 6 3 1 3 5 6 7 8 8 8 8 9 9 10 10 10 11 11 12 12 12 11 11 10 10 12 12 12 12 13 13 13 13 12 12 12 11 11 7
11 10 10 8 6 4 1 2 4 4 6 7 7 7 8 8 9 9 9 10 10 11 11 12 11 11 11 11 10 11 12 12 13 13 13 13 12 12 12 12 12 12 13
12 11 12 10 7 4 2 1 3 5 6 7 7 7 7 8 8 8 9 10 10 11 11 11 11 11 11 10 10 11 12 13 13 13 14 14 13 13 12 11 12 13 13
13 12 13 10 7 3 1 2 3 4 5 7 7 7 7 8 8 9 9 10 10 10 11 11 11 11 12 12 12 12 11 12 12 13 13 14 12 12 12 12 13 14 14
11 10 12 10 6 3 2 2 3 4 5 6 7 7 8 9 10 11 11 11 11 11 11 11 12 12 12 12 11 11 12 12 12 12 13 14 13 13 12 13 13 13 14
10 10 10 9 5 4 4 4 3 4 5 6 7 8 9 10 11 12 12 12 11 11 12 12 12 12 13 12 11 12 12 11 11 12 12 13 13 14 13 14 14 14 15
11 10 9 8 7 6 6 5 4 5 6 7 8 9 10 11 11 11 11 11 11 11 11 12 11 12 12 10 14 13 13 13 13 12 12 12 13 16 17 16 15 15 15
11 11 10 10 9 8 6 5 5 5 6 7 9 9 9 10 10 11 11 12 12 11 12 11 11 12 12 14 13 14 14 13 13 14 13 12 14 14 16 18 20 19 17
7 10 11 12 10 6 5 6 6 6 7 8 9 9 10 11 12 12 13 13 13 13 13 13 13 13 13 15 15 15 14 14 14 14 14 14 12 14 13 15 18 20 23
6 6 7 7 6 6 5 6 7 8 9 9 9 10 11 13 14 14 14 14 14 14 14 15 15 16 15 16 16 16 14 14 15 15 15 15 15 13 14 14 16 17 19
10 6 6 6 7 7 7 8 10 9 8 10 12 13 13 15 16 16 16 16 16 16 16 16 17 17 18 18 18 17 15 16 17 16 15 14 16 16 15 15 17 18 19
13 9 8 7 8 9 8 9 10 9 11 12 14 16 15 16 17 18 19 17 16 18 18 20 19 20 22 22 21 18 15 18 18 18 16 17 16 15 16 15 18 21 21
11 8 9 9 9 7 7 9 10 13 13 13 14 16 16 16 18 19 20 19 20 19 21 21 22 21 21 22 22 21 16 17 18 18 19 17 16 17 18 18 19 21 22
12 11 11 11 7 9 7 10 13 14 12 13 16 18 19 19 19 19 21 20 20 22 23 23 24 22 21 21 22 23 22 19 19 21 20 19 20 21 21 21 22 23 23
14 11 8 9 10 9 8 11 16 13 14 16 18 19 19 20 19 18 20 21 21 22 22 22 22 23 24 23 22 21 23 22 21 20 20 22 24 24 23 19 19 21 21
12 10 10 11 12 12 11 13 16 14 14 17 19 20 21 22 23 22 21 21 22 23 23 22 22 23 23 23 23 20 18 17 18 18 18 20 22 24 25 24 21 18 20
15 11 11 12 14 15 17 18 20 17 17 19 20 21 21 22 23 23 24 23 25 25 25 25 24 23 23 26 24 23 22 21 22 21 23 23 22 21 21 20 21 21 20
20 18 18 17 19 19 19 20 19 17 18 20 21 21 21 22 22 23 25 25 27 30 31 34 34 33 32 35 36 36 33 31 29 24 23 24 24 22 22 21 20 20 20
Wind_Direction
121 136 135 135 138 136 129 353 338 335 338 338 343 342 343 336 336 331 333 324 321 317 321 315 316 321 320 322 326 330 333 337 341 332 335 322 327 321 331 349 351 344 344
136 137 139 141 133 111 59 26 7 345 342 345 333 326 325 317 324 335 331 324 320 310 309 302 305 311 312 313 321 329 333 329 346 341 322 336 321 348 340 354 0 2 6
144 146 145 131 114 79 59 57 43 22 12 357 344 334 325 328 326 329 327 323 318 313 306 295 294 298 301 303 311 319 330 326 329 338 319 325 323 331 336 339 353 11 17
143 142 140 111 98 84 80 70 56 41 26 13 1 346 330 323 320 319 318 322 318 312 309 303 292 288 288 288 294 300 301 301 311 319 272 280 276 311 312 323 340 352 2
149 133 117 107 97 89 74 64 49 35 26 19 11 352 335 323 320 323 324 328 331 325 315 311 296 287 282 281 283 289 289 289 288 290 303 305 292 236 285 304 328 337 347
131 120 120 119 108 85 66 53 41 31 23 18 8 357 341 332 330 332 333 334 332 332 331 320 306 295 284 282 283 280 278 279 278 281 283 281 293 305 303 304 314 310 325
155 150 145 130 106 84 61 45 30 21 13 8 359 351 343 335 332 334 331 331 331 333 330 327 316 305 294 286 281 282 279 278 275 276 277 279 278 287 292 298 298 298 306
164 160 150 143 142 126 75 38 21 11 5 357 350 347 343 338 334 332 328 326 327 327 330 328 321 313 304 293 285 281 279 278 275 274 273 276 277 278 279 281 301 307 303
175 169 170 171 164 156 94 25 12 1 351 346 342 340 339 338 334 334 333 331 329 326 327 326 322 320 315 307 292 283 281 276 275 273 271 269 275 275 275 274 275 285 296
185 184 184 179 180 181 164 17 354 337 336 337 337 337 341 344 343 344 343 342 338 339 337 336 334 329 321 312 301 292 286 280 277 274 271 270 271 272 271 270 268 263 268
198 197 193 190 189 195 201 307 328 334 337 341 340 341 343 345 346 343 342 345 345 343 344 343 340 335 330 325 314 301 294 287 282 276 273 272 271 269 271 269 267 264 260
208 205 200 197 201 210 238 300 324 328 336 338 334 327 328 331 330 331 336 341 343 346 346 347 347 345 340 335 328 317 305 296 290 284 276 272 270 267 269 267 266 264 262
216 209 203 206 209 220 250 284 318 323 323 323 319 317 320 323 322 323 326 329 330 331 334 338 340 341 340 337 333 326 319 309 299 290 281 275 273 271 270 266 266 265 264
222 214 209 209 207 219 237 250 270 295 312 314 311 307 310 314 315 315 317 320 324 326 328 330 329 328 327 328 328 325 321 315 308 299 290 283 274 271 274 272 269 267 264
227 218 214 208 209 225 238 252 277 300 307 309 306 304 308 313 314 316 319 320 322 322 322 323 323 325 323 322 326 325 321 320 317 312 303 292 281 276 270 264 265 261 261
244 217 203 206 214 229 245 256 273 283 296 297 296 296 301 303 305 310 314 316 315 316 318 319 319 323 323 327 327 322 315 312 313 313 310 304 298 294 289 278 270 256 257
273 221 208 209 216 233 253 269 281 287 287 285 289 293 295 298 302 307 311 311 311 312 313 312 314 313 315 324 325 323 314 307 307 307 308 307 301 303 295 288 283 268 254
323 248 227 233 241 258 265 275 276 271 270 279 292 295 294 296 300 302 304 305 307 305 304 305 306 307 307 317 317 316 311 301 299 298 298 298 300 297 295 290 283 275 268
322 281 257 263 260 274 279 266 262 269 283 295 296 294 292 295 297 296 298 298 299 299 297 295 298 297 298 303 310 309 305 299 299 298 294 292 296 298 301 291 285 280 274
310 275 273 282 284 287 275 262 270 277 281 292 292 290 285 286 290 290 289 289 288 291 295 295 293 292 293 299 301 298 292 291 293 295 293 293 286 297 304 292 288 282 283
318 313 307 300 300 303 287 281 288 281 291 292 293 290 283 283 285 287 286 286 287 287 286 286 286 283 278 280 287 285 274 274 280 282 287 287 286 290 295 290 283 277 285
330 322 311 306 310 311 293 287 282 288 291 290 288 288 288 286 283 281 282 282 280 282 284 287 289 289 289 284 283 287 280 271 270 274 280 284 289 293 292 287 281 283 284
312 310 304 305 306 299 289 284 286 295 296 294 290 290 289 288 286 283 284 285 287 285 287 288 288 288 292 290 285 276 277 272 263 267 273 279 287 291 294 289 290 288 284
304 299 294 293 294 299 295 288 292 296 295 290 288 289 289 289 290 288 282 280 283 285 284 282 279 281 281 280 281 283 280 276 272 272 278 278 279 280 280 283 285 281 275
296 284 275 277 284 292 290 291 287 285 281 281 282 282 282 283 284 283 281 279 276 273 274 273 274 276 275 274 278 279 280 277 277 284 283 278 276 276 273 273 272 274 273
299 287 276 271 282 291 289 290 289 277 277 281 286 285 284 282 280 281 284 280 272 276 274 270 270 274 273 277 279 281 278 276 277 278 274 273 271 269 271 270 272 273 276
Height
817 819 821 822 824 825 825 825 824 823 822 822 820 819 818 816 815 812 809 808 807 806 804 803 801 799 797 795 793 790 787 783 781 776 771 765 762 761 758 754 750 744 740
818 820 822 823 824 825 825 824 823 823 822 820 819 818 817 815 813 810 809 807 805 803 802 801 799 798 796 795 793 790 786 783 781 779 774 767 761 758 757 754 751 746 740
817 820 822 823 824 825 823 823 823 823 821 819 818 818 816 815 813 811 808 806 803 801 799 798 797 796 795 794 792 790 788 785 782 781 779 774 769 765 755 754 752 748 743
819 821 823 823 824 825 823 823 823 822 820 819 818 818 817 815 813 810 806 803 801 798 796 795 794 793 793 792 790 789 787 786 783 781 779 778 775 770 761 753 750 749 746
819 822 824 824 825 825 824 824 823 822 820 819 818 817 816 814 811 809 805 803 799 796 794 792 791 791 790 789 788 786 785 784 783 781 778 776 772 770 767 757 750 748 746
822 824 825 825 825 825 825 824 823 822 820 818 817 816 815 813 810 808 805 801 799 795 793 791 790 789 788 787 785 783 782 781 780 779 777 775 772 768 766 761 755 751 745
821 824 824 824 825 825 824 824 823 821 819 817 816 815 813 811 809 806 804 801 798 795 792 790 788 787 786 784 783 781 780 778 777 776 775 773 771 769 767 764 757 753 747
821 823 823 823 824 824 824 822 821 820 818 817 816 814 812 810 808 805 803 800 797 794 791 788 786 784 782 781 779 778 776 775 775 773 772 771 769 768 766 764 762 753 746
818 820 821 821 822 822 822 821 819 819 818 816 815 813 811 809 807 804 802 799 796 793 790 788 785 782 779 777 776 774 773 772 771 770 769 768 767 766 765 763 762 760 751
815 817 818 819 820 820 819 819 818 818 817 816 814 813 810 808 806 803 801 798 795 792 789 786 783 780 777 775 773 771 770 769 767 766 765 765 764 763 762 761 759 759 757
811 813 814 817 818 818 818 818 818 818 817 815 814 812 810 808 806 804 801 798 795 791 788 784 781 778 775 773 771 769 767 765 764 763 762 761 760 760 759 758 757 756 755
805 809 812 815 816 817 818 818 818 817 816 814 813 812 810 808 806 803 800 797 794 791 787 784 781 778 775 772 769 767 765 763 761 759 758 757 756 755 755 754 753 752 751
806 808 811 813 815 816 818 818 818 817 815 814 812 811 809 807 805 802 799 796 793 790 787 783 780 776 773 770 768 766 763 760 758 756 755 753 752 751 750 750 749 748 748
804 806 809 811 813 814 815 815 814 813 813 811 810 809 807 805 803 800 797 794 791 788 785 782 779 776 773 770 767 764 762 759 756 754 752 750 749 748 747 746 745 745 744
801 804 806 808 811 812 812 812 811 811 810 809 808 807 805 803 800 798 795 792 789 786 783 780 778 775 772 770 766 763 759 756 754 751 749 747 745 743 742 741 740 740 739
797 799 802 805 807 808 809 809 809 808 808 807 806 804 802 799 797 795 792 789 787 784 781 778 775 772 770 767 764 761 758 754 751 748 746 743 741 739 737 735 734 735 734
796 798 799 801 803 805 807 806 806 806 805 804 803 801 799 797 795 792 789 786 783 781 779 777 773 770 767 764 761 758 756 753 749 746 742 739 737 735 733 731 729 728 727
799 799 800 802 803 803 803 803 803 802 802 801 799 797 795 794 791 789 786 783 780 777 774 772 770 767 763 760 757 754 751 749 746 743 740 737 734 732 729 727 724 722 721
802 801 800 800 800 800 800 799 799 799 798 797 796 795 793 790 787 784 782 780 777 773 770 767 764 762 758 755 753 750 748 744 741 738 735 733 730 728 726 723 720 717 714
803 801 800 800 799 798 797 795 794 793 792 792 791 790 788 787 785 782 779 775 772 769 766 762 759 756 752 750 747 745 744 740 737 733 730 728 725 723 721 719 716 712 710
803 802 801 799 797 795 794 792 790 790 789 788 786 784 782 780 779 777 774 772 768 764 761 757 752 749 746 743 740 739 737 734 731 727 724 722 720 718 716 714 712 708 706
804 802 800 798 795 795 793 791 789 787 785 783 781 778 776 774 771 769 767 764 762 758 753 750 745 741 738 736 732 730 729 727 726 722 719 716 714 711 710 708 705 703 701
803 800 797 796 793 793 791 788 785 783 781 778 777 773 769 766 764 762 760 757 754 749 745 742 738 734 731 728 725 722 720 718 716 714 712 710 707 704 701 699 698 696 693
799 797 795 793 790 788 788 785 783 778 775 773 771 769 764 760 757 754 752 749 746 743 738 735 731 728 724 721 717 714 713 711 708 706 704 703 701 698 695 692 689 687 685
797 793 791 788 786 784 780 777 776 773 768 766 763 760 758 753 749 746 743 741 737 735 731 726 723 721 716 712 711 709 707 704 702 701 698 695 692 689 687 685 682 680 678
792 789 786 782 779 776 773 769 768 766 762 758 755 753 750 745 741 737 732 730 726 724 722 719 717 712 709 705 702 699 699 697 695 693 690 686 683 680 678 676 674 673 671